TimePST,TemperatureF,Dew PointF,Humidity,Sea Level PressureIn,VisibilityMPH,Wind Direction,Wind SpeedMPH,Gust SpeedMPH,PrecipitationIn,Events,Conditions,WindDirDegrees,DateUTC
12:15 AM,59.0,46.4,63,29.89,10.0,SSE,5.8,-,N/A,,Overcast,160,2012-12-13 08:15:00
12:35 AM,59.0,46.4,63,29.88,10.0,South,5.8,-,N/A,,Overcast,170,2012-12-13 08:35:00
12:55 AM,59.0,46.4,63,29.87,10.0,South,4.6,-,N/A,,Overcast,180,2012-12-13 08:55:00
1:15 AM,57.2,48.2,72,29.87,5.0,South,9.2,-,N/A,,Light Drizzle,180,2012-12-13 09:15:00
1:35 AM,57.2,48.2,72,29.87,10.0,SSE,6.9,-,N/A,,Mostly Cloudy,160,2012-12-13 09:35:00
1:55 AM,57.2,48.2,72,29.86,10.0,SE,5.8,-,N/A,,Overcast,140,2012-12-13 09:55:00
2:15 AM,57.2,48.2,72,29.86,10.0,SE,11.5,-,N/A,,Overcast,140,2012-12-13 10:15:00
2:35 AM,55.4,48.2,77,29.85,10.0,SSE,5.8,-,N/A,,Mostly Cloudy,150,2012-12-13 10:35:00
2:55 AM,55.4,48.2,77,29.85,10.0,SE,3.5,-,N/A,,Mostly Cloudy,130,2012-12-13 10:55:00
3:15 AM,55.4,48.2,77,29.84,10.0,SE,4.6,-,N/A,,Overcast,130,2012-12-13 11:15:00
3:35 AM,55.4,48.2,77,29.83,10.0,ESE,5.8,-,N/A,,Overcast,120,2012-12-13 11:35:00
3:55 AM,55.4,48.2,77,29.82,10.0,SSE,6.9,-,N/A,,Overcast,150,2012-12-13 11:55:00
4:15 AM,55.4,46.4,72,29.82,10.0,SE,5.8,-,N/A,,Overcast,130,2012-12-13 12:15:00
4:35 AM,57.2,46.4,67,29.81,10.0,SE,6.9,-,N/A,,Mostly Cloudy,130,2012-12-13 12:35:00
4:55 AM,57.2,46.4,67,29.81,10.0,SE,4.6,-,N/A,,Overcast,140,2012-12-13 12:55:00
5:15 AM,55.4,48.2,77,29.82,7.0,SSE,6.9,-,N/A,Rain,Light Rain,150,2012-12-13 13:15:00
6:47 AM,53.6,53.6,100,29.83,4.0,Variable,3.5,-,N/A,Rain,Rain,0,2012-12-13 14:47:00
1:47 PM,55.4,53.6,94,29.76,7.0,Calm,Calm,-,N/A,,Overcast,0,2012-12-13 21:47:00
8:15 PM,51.8,42.8,71,29.79,10.0,Calm,Calm,-,N/A,,Clear,0,2012-12-14 04:15:00
8:35 PM,51.8,42.8,71,29.80,10.0,SW,3.5,-,N/A,,Clear,230,2012-12-14 04:35:00
8:55 PM,51.8,41.0,67,29.80,10.0,SW,4.6,-,N/A,,Clear,230,2012-12-14 04:55:00
9:15 PM,51.8,41.0,67,29.80,10.0,WSW,3.5,-,N/A,,Partly Cloudy,250,2012-12-14 05:15:00
9:55 PM,51.8,41.0,67,29.80,10.0,Calm,Calm,-,N/A,,Scattered Clouds,0,2012-12-14 05:55:00
10:15 PM,50.0,44.6,82,29.80,10.0,Calm,Calm,-,N/A,,Mostly Cloudy,0,2012-12-14 06:15:00
10:35 PM,50.0,42.8,76,29.80,10.0,Calm,Calm,-,N/A,,Partly Cloudy,0,2012-12-14 06:35:00
10:55 PM,51.8,41.0,67,29.79,10.0,Calm,Calm,-,N/A,,Mostly Cloudy,0,2012-12-14 06:55:00
11:15 PM,50.0,41.0,71,29.80,10.0,WSW,3.5,-,N/A,,Partly Cloudy,250,2012-12-14 07:15:00
11:35 PM,51.8,39.2,62,29.80,10.0,WSW,6.9,-,N/A,,Clear,250,2012-12-14 07:35:00
11:55 PM,50.0,39.2,66,29.80,10.0,Calm,Calm,-,N/A,,Partly Cloudy,0,2012-12-14 07:55:00